Simultaneous Nadir Overpasses (SNOs) Predictions

Prediction of SNOs between GOES-17 and METOP-A Satellite Orbit:

Table of predicted SNOs for the next 14.0 days since TLE Epoch: 3/27/2020
Index Date Time (GOES-17) GOES-17 Lat,Lon METOP-A Lat,Lon Distance(km) Time Diff (sec)
1 03/27/2020 17:45:04 0.02,-137.23 -0.60,-134.35 327.22 80
2 03/29/2020 06:04:05 -0.01,-137.21 -0.39,-138.99 202.85 80
3 03/30/2020 05:40:46 -0.00,-137.20 0.71,-134.01 363.65 80
4 03/31/2020 17:59:37 0.00,-137.20 0.34,-138.60 159.12 80
5 04/01/2020 17:41:38 -0.00,-137.19 -0.76,-133.61 407.08 80
6 04/03/2020 06:00:39 -0.01,-137.16 -0.23,-138.25 124.21 80
7 04/04/2020 05:37:19 -0.01,-137.14 0.87,-133.27 441.67 80
8 04/05/2020 17:56:11 0.02,-137.13 0.17,-137.85 82.18 80
9 04/06/2020 17:38:11 0.02,-137.11 -0.93,-132.87 483.38 80
10 04/08/2020 05:57:11 -0.02,-137.07 -0.12,-137.50 48.82 80




NCC Satellite Simultaneous Nadir Overpasses (SNOs) Prediction Service
